SAS42B EFHK-ESGG

Flight info

Callsign SAS42B
Flight time N/A
Altitude 38000
Route ADIVO Y365 POGOK DCT TUSNI DCT MOXAM
Aircraft A20N/M-SDE2E3FGHIRWXY/LB1

Departure

Time N/A
Airport Helsinki Vantaa Airport (EFHK)

Arrival

Time 2026-04-30 20:51
Airport Göteborg Landvetter Airport (ESGG)
Time Latitude Longitude Altitude Speed Heading
2026-04-30 20:34 59.31772 16.76116 38297 ft 449 kts 250°
2026-04-30 20:35 59.17983 16.11473 38306 ft 446 kts 250°
2026-04-30 20:35 59.09660 15.73392 38308 ft 446 kts 250°
2026-04-30 20:36 59.04772 15.51347 38311 ft 447 kts 250°
2026-04-30 20:37 58.97326 15.18195 38323 ft 446 kts 249°
2026-04-30 20:37 58.92308 14.96151 38239 ft 447 kts 249°
2026-04-30 20:37 58.89769 14.85077 36959 ft 452 kts 249°
2026-04-30 20:38 58.87208 14.73966 35275 ft 459 kts 249°
2026-04-30 20:38 58.84590 14.62680 33674 ft 461 kts 249°
2026-04-30 20:38 58.81959 14.51396 32040 ft 460 kts 250°
2026-04-30 20:39 58.76785 14.29384 29619 ft 442 kts 250°
2026-04-30 20:39 58.74266 14.18739 28475 ft 431 kts 250°
2026-04-30 20:39 58.71797 14.08351 27356 ft 422 kts 249°
2026-04-30 20:40 58.66971 13.88185 25132 ft 407 kts 249°
2026-04-30 20:40 58.64606 13.78365 23993 ft 402 kts 249°
2026-04-30 20:40 58.62275 13.68737 22885 ft 393 kts 248°
2026-04-30 20:41 58.57765 13.50223 20734 ft 377 kts 248°
2026-04-30 20:41 58.55540 13.41141 19673 ft 372 kts 248°
2026-04-30 20:41 58.53096 13.32564 18611 ft 371 kts 234°
2026-04-30 20:41 58.49264 13.26121 17511 ft 370 kts 217°
2026-04-30 20:42 58.45101 13.20539 16445 ft 364 kts 217°
2026-04-30 20:42 58.40983 13.14982 15377 ft 359 kts 217°
2026-04-30 20:42 58.32896 13.04131 13264 ft 349 kts 216°
2026-04-30 20:43 58.28951 12.98867 12232 ft 343 kts 216°
2026-04-30 20:43 58.25070 12.93702 11220 ft 338 kts 216°
2026-04-30 20:43 58.21264 12.88650 10569 ft 322 kts 216°
2026-04-30 20:44 58.14427 12.79609 9613 ft 288 kts 217°
2026-04-30 20:44 58.11152 12.75292 8825 ft 284 kts 217°
2026-04-30 20:44 58.04833 12.66675 7296 ft 278 kts 218°
2026-04-30 20:45 57.98105 12.57495 5617 ft 274 kts 218°
2026-04-30 20:45 57.96426 12.55622 5260 ft 277 kts 208°
2026-04-30 20:45 57.94678 12.54031 4852 ft 279 kts 208°
2026-04-30 20:46 57.89515 12.49291 3747 ft 273 kts 209°
2026-04-30 20:46 57.87817 12.47725 3436 ft 269 kts 209°
2026-04-30 20:47 57.84623 12.44777 3243 ft 245 kts 209°
2026-04-30 20:47 57.83125 12.43396 3164 ft 234 kts 209°
2026-04-30 20:48 57.80314 12.40813 3003 ft 215 kts 210°
2026-04-30 20:48 57.78999 12.39606 2837 ft 210 kts 210°
2026-04-30 20:48 57.77689 12.38406 2634 ft 207 kts 210°
2026-04-30 20:48 57.76421 12.37243 2473 ft 200 kts 211°
2026-04-30 20:49 57.75231 12.36162 2267 ft 183 kts 211°
2026-04-30 20:49 57.74132 12.35151 2009 ft 167 kts 212°
2026-04-30 20:49 57.73137 12.34235 1780 ft 151 kts 212°
2026-04-30 20:50 57.71377 12.32628 1401 ft 137 kts 211°
2026-04-30 20:50 57.70527 12.31844 1195 ft 137 kts 209°
2026-04-30 20:50 57.69661 12.31065 1006 ft 138 kts 207°
2026-04-30 20:50 57.68819 12.30285 840 ft 136 kts 207°
2026-04-30 20:51 57.67955 12.29503 634 ft 137 kts 206°
2026-04-30 20:51 57.66441 12.28122 511 ft 80 kts 206°
2026-04-30 20:51 57.66119 12.27830 508 ft 28 kts 206°
2026-04-30 20:52 57.65937 12.27678 506 ft 30 kts 195°
2026-04-30 20:52 57.65763 12.27669 505 ft 5 kts 174°
2026-04-30 20:52 57.65729 12.27820 504 ft 11 kts 31°
2026-04-30 20:53 57.65802 12.27894 506 ft 13 kts 25°
2026-04-30 20:53 57.65888 12.27970 507 ft 0 kts 24°
2026-04-30 20:53 57.65888 12.27971 507 ft 1 kts 24°
2026-04-30 20:54 57.65945 12.28018 507 ft 8 kts 24°
2026-04-30 20:54 57.66008 12.28075 508 ft 12 kts 26°
2026-04-30 20:54 57.66091 12.28151 509 ft 15 kts 25°
2026-04-30 20:55 57.66311 12.28351 510 ft 20 kts 26°
2026-04-30 20:55 57.66446 12.28475 511 ft 23 kts 26°
2026-04-30 20:55 57.66597 12.28611 512 ft 25 kts 26°
2026-04-30 20:56 57.66935 12.28919 513 ft 22 kts 25°
2026-04-30 20:56 57.67027 12.29005 514 ft 14 kts 34°
2026-04-30 20:56 57.66997 12.29248 543 ft 12 kts 115°
2026-04-30 20:57 57.66955 12.29375 516 ft 10 kts 115°
2026-04-30 20:57 57.66936 12.29451 516 ft 1 kts 115°
2026-04-30 20:57 57.66933 12.29461 516 ft 1 kts 116°
2026-04-30 20:58 57.66933 12.29463 516 ft 0 kts 116°